Regional Weather Roundup
Issued by NWS Newport/Morehead, NC

Current Version | Previous Version | Graphics & Text | Print | Product List | Glossary Off
Versions: 1 2 3 4 5 6 7 8 9 10 11 12 13 14 15 16 17 18 19 20 21 22 23 24 25 26 27 28 29 30 31 32 33 34 35 36 37 38 39 40 41 42 43 44 45 46 47 48 49 50
625 ASUS42 KMHX 241313 RWRMHX WEATHER ROUNDUP FOR EASTERN NORTH CAROLINA NATIONAL WEATHER SERVICE NEWPORT/MOREHEAD CITY NC 900 AM EDT TUE MAY 24 2016 NOTE: "FAIR" INDICATES FEW OR NO CLOUDS BELOW 12,000 FEET WITH NO SIGNIFICANT WEATHER AND/OR OBSTRUCTIONS TO VISIBILITY NCZ015>017-031-032-045>047-102-103-241400- NORTH COAST CITY SKY/WX TMP DP RH WIND PRES REMARKS EDENTON SUNNY N/A N/A N/A W12 30.09R ELIZABETH CITY SUNNY 64 55 72 W10 30.06R KITTY HAWK SUNNY 66 56 72 W5 30.05R MANTEO SUNNY 63 56 79 W6 30.07R $$ NCZ045>047-081-094-103-104-241400- CENTRAL COAST CITY SKY/WX TMP DP RH WIND PRES REMARKS FRISCO SUNNY 68 56 65 W8 30.09R $$ NCZ095-097-098-100-101-241400- SOUTHERN COAST CITY SKY/WX TMP DP RH WIND PRES REMARKS BEAUFORT SUNNY 67 53 61 NW7 30.12R CEDAR ISLAND NOT AVBL JACKSONVILLE SUNNY 65 55 70 W7 30.12R PINEY ISLAND NOT AVBL WILMINGTON SUNNY 67 55 65 W6 30.14R $$ NCZ011>013-027>030-043-044-078>080-089-090>093-098-241400- COASTAL PLAIN CITY SKY/WX TMP DP RH WIND PRES REMARKS AHOSKIE SUNNY 61 55 80 CALM 30.08R HAZE CLINTON SUNNY 64 56 74 W7 30.14R ELIZABETHTOWN SUNNY 64 55 71 NW5 30.13R GOLDSBORO NOT AVBL GREENVILLE SUNNY 64 55 72 W5 30.11R HAVELOCK SUNNY 65 52 62 W10 30.13R KENANSVILLE SUNNY 64 55 72 CALM 30.13R KINSTON SUNNY 66 55 68 W8 30.12R NEW BERN SUNNY 65 53 65 W6 30.12R RICHLANDS SUNNY 65 56 72 W6 30.14R ROCKY MOUNT SUNNY 64 55 72 W8 30.10R WASHINGTON SUNNY 65 54 68 W7 30.10R WHITEVILLE SUNNY 64 55 74 CALM 30.14R $$ AMZ130-135-150-152-154-156-158-170-250-252-270-ANZ085-086-088-633-658-670-241400- MARINE OBSERVATIONS STATION/POSITION TIME TEMP WIND PRES WAVE SWELL AIR SEA DIR/SP/G HT/PER HT/PER (UTC) (F) (DEG/KT/KT) (MB) (FT/S) (FT/S) CHESAPEAKE LIGHT 1300 61 250/ 14/ 14 1017.0 64 E VA BEACH 1250 58 56 240/ 10/ 12 1016.2 5/10 5/10 DUCK 1200 62 62 240/ 10/ 12 1016.6 2 E DUCK 1211 62 N/A 3/10 2/11 OREGON INLET 1200 61 63 260/ 7/ 10 1017.8 13E OREGON INLT 1300 60 N/A 4/11 3/11 HATTERAS CG 1200 65 66 280/ 15/ 16 1018.0 DIAMOND BUOY 1250 65 67 290/ 12/ 16 1018.8 4/11 3/11 CAPE LOOKOUT 1300 68 290/ 7/ 9 1019.5 BEAUFORT LAB 1200 63 67 310/ 3/ 4 1018.1 30 SE NEW RVR IN 1225 73 N/A 2/10 27 SE WRIGHTSVLE 1208 69 72 320/ 4/ 8 1019.3 5 SE WRIGHTSVLE 1208 65 71 300/ 8/ 12 1020.4 225 S CAPE HAT 1250 73 77 310/ 6/ 10 1019.0 4/ 6 3/ 6 41 SE CHARLESTON 1250 71 75 30/ 4/ 6 1020.5 2/ 9 2/ 9 $$

USA.gov is the U.S. government's official web portal to all federal, state and local government web resources and services.